FJQ YMEN-YSSY

Flight info

Callsign FJQ
Flight time 0h 56m
Altitude 41000
Route ESDAN DCT DOSEL Y59 RIVET
Aircraft FA50/M-SDFGHIM1RWXY/H

Departure

Time 2026-04-16 10:39
Airport Melbourne Essendon Airport (YMEN)

Arrival

Time 2026-04-16 11:35
Airport Sydney Kingsford Smith International Airport (YSSY)
Time Latitude Longitude Altitude Speed Heading
2026-04-16 10:18 -37.72853 144.89578 284 ft 0 kts 277°
2026-04-16 10:28 -37.72247 144.89783 284 ft 0 kts 331°
2026-04-16 10:37 -37.72210 144.89812 284 ft 12 kts 57°
2026-04-16 10:37 -37.72172 144.89916 284 ft 14 kts 71°
2026-04-16 10:37 -37.72163 144.89973 284 ft 0 kts 85°
2026-04-16 10:37 -37.72163 144.89978 284 ft 4 kts 85°
2026-04-16 10:38 -37.72174 144.90074 284 ft 12 kts 149°
2026-04-16 10:38 -37.72251 144.90083 284 ft 38 kts 178°
2026-04-16 10:38 -37.72807 144.90111 284 ft 117 kts 179°
2026-04-16 10:38 -37.73694 144.90172 683 ft 136 kts 179°
2026-04-16 10:39 -37.74657 144.90309 1243 ft 151 kts 176°
2026-04-16 10:39 -37.75809 144.90695 1747 ft 194 kts 148°
2026-04-16 10:39 -37.76570 144.92189 2437 ft 229 kts 101°
2026-04-16 10:39 -37.76273 144.94229 3282 ft 253 kts 59°
2026-04-16 10:40 -37.74993 144.95715 4183 ft 267 kts 21°
2026-04-16 10:40 -37.73315 144.96008 4993 ft 243 kts 350°
2026-04-16 10:40 -37.71588 144.95779 5979 ft 260 kts 348°
2026-04-16 10:40 -37.69776 144.95479 7003 ft 276 kts 348°
2026-04-16 10:41 -37.67875 144.95113 8293 ft 281 kts 346°
2026-04-16 10:41 -37.66023 144.95230 9548 ft 300 kts 18°
2026-04-16 10:41 -37.64409 144.96767 11148 ft 300 kts 37°
2026-04-16 10:41 -37.62766 144.98482 12216 ft 310 kts 32°
2026-04-16 10:42 -37.61044 145.00095 13340 ft 318 kts 30°
2026-04-16 10:42 -37.59178 145.01773 13691 ft 350 kts 30°
2026-04-16 10:42 -37.57180 145.03561 14575 ft 362 kts 30°
2026-04-16 10:42 -37.55040 145.05466 14902 ft 389 kts 30°
2026-04-16 10:43 -37.52839 145.07428 15952 ft 391 kts 30°
2026-04-16 10:43 -37.50614 145.09405 16842 ft 397 kts 30°
2026-04-16 10:43 -37.48345 145.11421 17655 ft 404 kts 29°
2026-04-16 10:43 -37.46047 145.13461 18487 ft 408 kts 29°
2026-04-16 10:44 -37.43759 145.15489 19337 ft 411 kts 29°
2026-04-16 10:44 -37.41538 145.17467 20940 ft 390 kts 28°
2026-04-16 10:44 -37.39391 145.19362 21618 ft 397 kts 27°
2026-04-16 10:44 -37.37214 145.21283 22216 ft 404 kts 27°
2026-04-16 10:45 -37.34922 145.23311 22962 ft 406 kts 27°
2026-04-16 10:45 -37.32590 145.25369 23613 ft 411 kts 27°
2026-04-16 10:45 -37.30230 145.27454 24247 ft 415 kts 27°
2026-04-16 10:45 -37.27890 145.29517 24859 ft 419 kts 27°
2026-04-16 10:46 -37.25505 145.31618 25399 ft 424 kts 27°
2026-04-16 10:46 -37.23112 145.33727 25977 ft 427 kts 26°
2026-04-16 10:46 -37.20693 145.35857 26729 ft 425 kts 26°
2026-04-16 10:46 -37.18275 145.38010 27257 ft 432 kts 30°
2026-04-16 10:47 -37.16131 145.40669 27721 ft 449 kts 42°
2026-04-16 10:47 -37.14249 145.43794 28216 ft 458 kts 48°
2026-04-16 10:47 -37.12477 145.47101 28843 ft 457 kts 49°
2026-04-16 10:47 -37.10797 145.50272 30039 ft 439 kts 49°
2026-04-16 10:48 -37.09187 145.53279 30425 ft 444 kts 48°
2026-04-16 10:48 -37.07535 145.56364 30694 ft 451 kts 49°
2026-04-16 10:48 -37.05821 145.59575 31198 ft 451 kts 49°
2026-04-16 10:48 -37.04079 145.62828 31607 ft 454 kts 49°
2026-04-16 10:49 -37.02372 145.66013 31955 ft 457 kts 48°
2026-04-16 10:49 -37.00647 145.69231 32345 ft 459 kts 47°
2026-04-16 10:49 -36.99043 145.72217 32668 ft 461 kts 47°
2026-04-16 10:49 -36.97642 145.74824 32935 ft 463 kts 47°
2026-04-16 10:50 -36.95100 145.79553 33416 ft 467 kts 47°
2026-04-16 10:50 -36.93288 145.82919 33736 ft 469 kts 47°
2026-04-16 10:50 -36.91472 145.86289 34044 ft 472 kts 47°
2026-04-16 10:50 -36.89631 145.89699 34359 ft 474 kts 47°
2026-04-16 10:51 -36.87794 145.93100 34673 ft 476 kts 47°
2026-04-16 10:51 -36.85967 145.96486 35367 ft 467 kts 47°
2026-04-16 10:51 -36.84178 145.99794 36059 ft 459 kts 47°
2026-04-16 10:51 -36.82396 146.03078 36430 ft 460 kts 47°
2026-04-16 10:52 -36.80611 146.06367 36768 ft 461 kts 47°
2026-04-16 10:52 -36.78827 146.09656 37139 ft 460 kts 47°
2026-04-16 10:52 -36.77045 146.12936 37500 ft 460 kts 47°
2026-04-16 10:52 -36.75258 146.16223 37847 ft 460 kts 47°
2026-04-16 10:53 -36.73468 146.19511 38189 ft 460 kts 47°
2026-04-16 10:53 -36.71679 146.22794 38522 ft 460 kts 47°
2026-04-16 10:53 -36.69890 146.26076 38849 ft 460 kts 47°
2026-04-16 10:53 -36.68104 146.29346 39167 ft 460 kts 47°
2026-04-16 10:54 -36.66297 146.32654 39482 ft 460 kts 47°
2026-04-16 10:54 -36.64514 146.35915 39785 ft 460 kts 47°
2026-04-16 10:54 -36.62732 146.39168 40082 ft 460 kts 47°
2026-04-16 10:54 -36.60917 146.42480 40377 ft 460 kts 47°
2026-04-16 10:55 -36.59125 146.45746 40662 ft 460 kts 47°
2026-04-16 10:55 -36.57336 146.49004 40940 ft 460 kts 47°
2026-04-16 10:55 -36.55533 146.52283 41046 ft 465 kts 47°
2026-04-16 10:55 -36.53701 146.55611 41035 ft 472 kts 47°
2026-04-16 10:56 -36.49942 146.62434 41037 ft 486 kts 48°
2026-04-16 10:56 -36.46111 146.69374 41017 ft 497 kts 47°
2026-04-16 10:57 -36.42157 146.76521 41019 ft 506 kts 47°
2026-04-16 10:57 -36.38150 146.83751 41019 ft 513 kts 47°
2026-04-16 10:58 -36.34102 146.91036 41022 ft 519 kts 48°
2026-04-16 10:58 -36.30010 146.98386 41050 ft 523 kts 48°
2026-04-16 10:59 -36.25861 147.05821 41083 ft 527 kts 49°
2026-04-16 10:59 -36.21695 147.13274 41102 ft 530 kts 49°
2026-04-16 11:00 -36.17511 147.20740 41105 ft 533 kts 49°
2026-04-16 11:00 -36.13267 147.28297 41106 ft 536 kts 49°
2026-04-16 11:01 -36.08985 147.35904 41107 ft 538 kts 49°
2026-04-16 11:01 -36.04702 147.43498 41108 ft 539 kts 49°
2026-04-16 11:02 -36.00418 147.51073 41109 ft 540 kts 49°
2026-04-16 11:02 -35.96124 147.58653 41110 ft 541 kts 49°
2026-04-16 11:03 -35.91794 147.66280 41103 ft 541 kts 48°
2026-04-16 11:04 -35.85325 147.77640 41098 ft 541 kts 48°
2026-04-16 11:04 -35.80985 147.85240 41099 ft 540 kts 48°
2026-04-16 11:05 -35.76647 147.92821 41100 ft 540 kts 48°
2026-04-16 11:05 -35.72348 148.00317 41102 ft 540 kts 48°
2026-04-16 11:06 -35.67990 148.07899 41103 ft 540 kts 48°
2026-04-16 11:06 -35.63643 148.15448 41104 ft 541 kts 48°
2026-04-16 11:07 -35.59297 148.22975 41105 ft 541 kts 48°
2026-04-16 11:07 -35.54957 148.30478 41106 ft 541 kts 48°
2026-04-16 11:08 -35.50361 148.37767 41112 ft 533 kts 40°
2026-04-16 11:08 -35.45394 148.44389 41108 ft 533 kts 40°
2026-04-16 11:09 -35.40409 148.51083 41110 ft 534 kts 40°
2026-04-16 11:09 -35.35410 148.57781 41110 ft 534 kts 40°
2026-04-16 11:10 -35.30397 148.64485 41111 ft 534 kts 40°
2026-04-16 11:10 -35.25373 148.71188 41094 ft 534 kts 40°
2026-04-16 11:11 -35.20355 148.77873 41096 ft 533 kts 40°
2026-04-16 11:11 -35.15341 148.84537 41096 ft 533 kts 40°
2026-04-16 11:12 -35.10326 148.91190 41098 ft 533 kts 40°
2026-04-16 11:12 -35.05299 148.97847 41100 ft 534 kts 40°
2026-04-16 11:13 -35.00274 149.04486 41102 ft 536 kts 41°
2026-04-16 11:13 -34.95207 149.11171 41104 ft 537 kts 41°
2026-04-16 11:14 -34.90145 149.17833 41104 ft 538 kts 41°
2026-04-16 11:14 -34.85054 149.24522 41105 ft 538 kts 41°
2026-04-16 11:15 -34.79947 149.31220 41106 ft 538 kts 41°
2026-04-16 11:15 -34.74924 149.38025 41097 ft 545 kts 50°
2026-04-16 11:16 -34.70974 149.45926 41110 ft 551 kts 58°
2026-04-16 11:16 -34.67401 149.54143 41109 ft 551 kts 58°
2026-04-16 11:17 -34.63831 149.62309 41122 ft 548 kts 58°
2026-04-16 11:17 -34.62051 149.66371 40823 ft 552 kts 58°
2026-04-16 11:17 -34.60240 149.70500 40363 ft 557 kts 58°
2026-04-16 11:17 -34.58413 149.74663 40100 ft 556 kts 58°
2026-04-16 11:18 -34.56600 149.78787 39692 ft 554 kts 58°
2026-04-16 11:18 -34.54792 149.82893 39066 ft 554 kts 58°
2026-04-16 11:18 -34.53001 149.86958 38366 ft 553 kts 58°
2026-04-16 11:18 -34.51189 149.91064 37545 ft 554 kts 58°
2026-04-16 11:19 -34.49388 149.95142 36703 ft 554 kts 58°
2026-04-16 11:19 -34.47562 149.99272 35855 ft 554 kts 58°
2026-04-16 11:19 -34.45736 150.03394 34934 ft 556 kts 58°
2026-04-16 11:19 -34.43912 150.07510 33969 ft 558 kts 58°
2026-04-16 11:20 -34.42083 150.11629 33031 ft 560 kts 58°
2026-04-16 11:20 -34.40266 150.15720 32135 ft 560 kts 58°
2026-04-16 11:20 -34.38423 150.19859 31197 ft 560 kts 58°
2026-04-16 11:20 -34.36582 150.23993 30240 ft 560 kts 59°
2026-04-16 11:21 -34.34742 150.28120 29246 ft 561 kts 59°
2026-04-16 11:21 -34.32876 150.32300 28197 ft 561 kts 59°
2026-04-16 11:21 -34.31044 150.36397 27135 ft 561 kts 59°
2026-04-16 11:21 -34.29203 150.40511 26017 ft 561 kts 60°
2026-04-16 11:22 -34.27356 150.44638 24855 ft 561 kts 60°
2026-04-16 11:22 -34.25535 150.48715 24081 ft 553 kts 60°
2026-04-16 11:22 -34.23725 150.52760 23493 ft 541 kts 60°
2026-04-16 11:22 -34.21954 150.56712 22470 ft 539 kts 60°
2026-04-16 11:23 -34.20173 150.60684 21623 ft 535 kts 60°
2026-04-16 11:23 -34.18440 150.64545 21421 ft 517 kts 60°
2026-04-16 11:23 -34.16724 150.68361 20194 ft 523 kts 60°
2026-04-16 11:23 -34.15060 150.72060 20171 ft 502 kts 60°
2026-04-16 11:24 -34.13394 150.75757 19429 ft 500 kts 60°
2026-04-16 11:24 -34.11763 150.79376 18562 ft 486 kts 60°
2026-04-16 11:24 -34.10177 150.82887 17284 ft 481 kts 60°
2026-04-16 11:24 -34.08597 150.86400 16209 ft 470 kts 60°
2026-04-16 11:25 -34.07070 150.89792 15119 ft 461 kts 61°
2026-04-16 11:25 -34.05575 150.93193 14010 ft 450 kts 65°
2026-04-16 11:25 -34.04828 150.96744 12687 ft 440 kts 87°
2026-04-16 11:25 -34.05119 151.00302 11441 ft 427 kts 103°
2026-04-16 11:26 -34.05780 151.03748 10022 ft 422 kts 104°
2026-04-16 11:26 -34.06849 151.06894 8657 ft 413 kts 124°
2026-04-16 11:26 -34.08832 151.09323 7330 ft 403 kts 147°
2026-04-16 11:26 -34.11330 151.10577 5984 ft 394 kts 170°
2026-04-16 11:27 -34.13970 151.10539 4657 ft 385 kts 193°
2026-04-16 11:27 -34.16537 151.09834 3354 ft 379 kts 185°
2026-04-16 11:27 -34.19043 151.10347 2952 ft 349 kts 160°
2026-04-16 11:27 -34.21228 151.11099 3004 ft 314 kts 167°
2026-04-16 11:28 -34.23262 151.11642 3004 ft 286 kts 168°
2026-04-16 11:28 -34.25123 151.12135 3003 ft 263 kts 168°
2026-04-16 11:28 -34.26840 151.12592 3004 ft 245 kts 168°
2026-04-16 11:28 -34.28524 151.13361 3041 ft 285 kts 143°
2026-04-16 11:29 -34.29822 151.15297 3043 ft 307 kts 115°
2026-04-16 11:29 -34.30148 151.17850 3023 ft 309 kts 84°
2026-04-16 11:29 -34.29374 151.20227 3025 ft 306 kts 52°
2026-04-16 11:29 -34.27732 151.21779 3023 ft 300 kts 21°
2026-04-16 11:30 -34.25711 151.22237 3031 ft 297 kts
2026-04-16 11:30 -34.23640 151.22398 3021 ft 302 kts
2026-04-16 11:30 -34.21418 151.22551 3039 ft 336 kts
2026-04-16 11:30 -34.19051 151.22707 3029 ft 345 kts
2026-04-16 11:31 -34.16669 151.22972 3017 ft 334 kts
2026-04-16 11:31 -34.14420 151.22761 3014 ft 324 kts 348°
2026-04-16 11:31 -34.12224 151.22189 3018 ft 315 kts 346°
2026-04-16 11:31 -34.10136 151.21629 2798 ft 306 kts 346°
2026-04-16 11:32 -34.08115 151.21101 2394 ft 291 kts 346°
2026-04-16 11:32 -34.06156 151.20593 2000 ft 278 kts 346°
2026-04-16 11:32 -34.04310 151.20111 1631 ft 267 kts 347°
2026-04-16 11:32 -34.02597 151.19669 1271 ft 237 kts 347°
2026-04-16 11:33 -34.01026 151.19260 961 ft 209 kts 347°
2026-04-16 11:33 -33.99699 151.18915 737 ft 180 kts 347°
2026-04-16 11:33 -33.98621 151.18636 500 ft 146 kts 346°
2026-04-16 11:33 -33.97712 151.18399 313 ft 125 kts 347°
2026-04-16 11:34 -33.96898 151.18187 142 ft 119 kts 347°
2026-04-16 11:34 -33.96066 151.17970 34 ft 118 kts 346°
2026-04-16 11:34 -33.95343 151.17784 27 ft 97 kts 347°
2026-04-16 11:34 -33.94832 151.17658 27 ft 52 kts 355°
2026-04-16 11:35 -33.94565 151.17668 27 ft 16 kts 14°
2026-04-16 11:35 -33.94498 151.17688 27 ft 0 kts 13°
2026-04-16 11:35 -33.94467 151.17700 27 ft 12 kts 22°
2026-04-16 11:35 -33.94425 151.17719 27 ft 0 kts 18°
2026-04-16 11:37 -33.94416 151.17723 27 ft 1 kts 18°
2026-04-16 11:37 -33.94397 151.17731 27 ft 4 kts 18°
2026-04-16 11:38 -33.94300 151.17725 27 ft 17 kts 346°
2026-04-16 11:38 -33.94193 151.17691 27 ft 19 kts 346°
2026-04-16 11:38 -33.94036 151.17645 27 ft 23 kts 347°